Regional Weather Roundup
Issued by NWS Sioux Falls, SD

Home | Current Version | Previous Version | Text Only | Print | Product List | Glossary On
Versions: 1 2 3 4 5 6 7 8 9 10 11 12 13 14 15 16 17 18 19 20 21 22 23 24 25 26 27 28 29 30 31 32 33 34 35 36 37 38 39 40 41 42 43 44 45 46 47 48 49 50
000
ASUS43 KFSD 182302
RWRFSD

WEATHER ROUNDUP FOR SE SOUTH DAKOTA/SW MINNESOTA/NW IOWA
NATIONAL WEATHER SERVICE SIOUX FALLS SD
600 PM CDT WED OCT 18 2017

NOTE: "FAIR" INDICATES FEW OR NO CLOUDS BELOW 12,000 FEET WITH NO
SIGNIFICANT WEATHER AND OR OBSTRUCTIONS TO VISIBILITY.


SDZ038>040-050-052>070-190000-
SOUTHEAST SOUTH DAKOTA

CITY           SKY/WX    TMP DP  RH WIND       PRES   REMARKS
BROOKINGS      CLEAR     59  33  37 NW6       30.02R
CHAMBERLAIN    CLEAR     65  31  27 NW3       30.05R
HURON          CLEAR     62  31  31 N3        30.02S
MADISON        FAIR      59  32  36 NW6       30.03R
MITCHELL       CLEAR     65  27  23 N6        30.04R
SIOUX FALLS    MOCLDY    65  35  33 N8        30.01R
WINNER         FAIR      64  35  34 E5        30.06S
YANKTON        CLEAR     67  36  31 NW10      30.02R
$$

MNZ071-072-080-081-089-090-097-098-190000-
SOUTHWEST MINNESOTA

CITY           SKY/WX    TMP DP  RH WIND       PRES   REMARKS
FAIRMONT       CLOUDY    68  35  29 N8        29.97R
JACKSON        CLOUDY    64  32  29 NW10      30.00R
MARSHALL       CLEAR     62  26  25 N8        29.99R
MONTEVIDEO     MOCLDY    61  27  27 NW6       29.98S
PIPESTONE      CLEAR     64  27  24 N9        30.01R
REDWOOD FALLS  CLOUDY    64  28  25 NW9       29.97R
TRACY          CLEAR     64  28  25 NW5       29.99R
WORTHINGTON    CLEAR     66  34  30 N6        30.01R
$$

IAZ001>003-012>014-020>022-031-032-NEZ013-014-SDZ071-190000-
NORTHWEST IOWA

CITY           SKY/WX    TMP DP  RH WIND       PRES   REMARKS
CHEROKEE       CLEAR     69  45  42 CALM      29.97R
DENISON        CLEAR     70  46  43 N3        29.98R
ESTHERVILLE    CLEAR     65  37  35 N7        29.97R
LE MARS        CLEAR     72  34  25 N6        29.98R
ORANGE CITY    CLEAR     72  37  28 N5        29.99R
SHELDON        CLEAR     68  32  26 N6        29.98R
SIOUX CITY     CLEAR     67  48  50 N7        29.98R
SPENCER        CLEAR     68  36  30 N8        29.98R
STORM LAKE     CLEAR     66  43  42 CALM      29.98R
$$

ABBREVIATIONS USED IN REMARKS
   TC - TEMPERATURE IN CELSIUS
  WCI - WIND CHILL INDEX
   HX - HEAT INDEX
  VSB - VISIBILITY





USA.gov is the U.S. government's official web portal to all federal, state and local government web resources and services.